Location: El Álamo
(40.2307°N, 3.9945°W)
Time: 16:16:52
(UTC+00:00)

Cosmos 1339 Rocket - Pass Details

Date: 19 May 2025
Orbit: 942 x 1004 km, 82.9° (Epoch: 22 June)

Event Time Altitude Azimuth Distance (km) Brightness Sun altitude
Exits shadow 23:20:31 67° 243° (WSW) 1,020 4.4 -28.6°
Maximum altitude 23:21:02 71° 278° (W) 997 4.5 -28.6°
Drops below altitude 10° 23:27:06 10° 3° (N) 2,667 7.7 -28.9°
Sets 23:29:37 0° 6° (N) 3,616 8.6 -29.0°
